Location: Unspecified
(40.7945°N, 0.0000°E)
Time: 07:00:17
(UTC+00:00)

A-11 Canister half - Pass Details

Date: 25 January 2021
Orbit: 1516 x 1684 km, 47.2° (Epoch: 28 February)

Event Time Altitude Azimuth Distance (km) Brightness Sun altitude
Rises 01:08:39 0° 295° (WNW) 4,676 - -65.0°
Reaches altitude 10° 01:11:42 10° 296° (WNW) 3,684 - -64.7°
Maximum altitude 01:21:00 83° 25° (NNE) 1,532 - -63.7°
Drops below altitude 10° 01:30:21 10° 114° (ESE) 3,706 - -62.5°
Sets 01:33:25 0° 115° (ESE) 4,704 - -62.1°
